Tracking 18980 objects as of 22-Feb-2018
HD Live streaming from Space Station
objects crossing your sky now

BIRD JJ

Track BIRD JJ now!
10-day predictions
BIRD JJ is classified as:


NORAD ID: 42820
Int'l Code: 1998-067MU
Perigee: 384.3 km
Apogee: 388.1 km
Inclination: 51.6 °
Period: 92.1 minutes
Semi major axis: 6757 km
RCS: Unknown
Launch date: November 20, 1998
Source: Japan (JPN)
Launch site: TYURATAM MISSILE AND SPACE COMPLEX (TTMTR)
Uplink (MHz):
Downlink (MHz): 437.375
Beacon (MHz): 437.372
Mode: 1k2AFSK 9k6GMSK CW
Call sign: JG6YJO
Status: Active

aabbcc
Your satellite tracking list
Your tracking list is empty




NASA's NSSDC Master Catalog

Two Line Element Set (TLE):
1 42820U 98067MU  18052.73654373 +.00014751 +00000-0 +16505-3 0  9998
2 42820 051.6356 226.2346 0002816 095.9929 264.1387 15.62966844035795
Source of the keplerian elements: AFSPC